Regional Weather Roundup
Issued by NWS Newport/Morehead, NC

Current Version | Previous Version | Graphics & Text | Print | Product List | Glossary Off
Versions: 1 2 3 4 5 6 7 8 9 10 11 12 13 14 15 16 17 18 19 20 21 22 23 24 25 26 27 28 29 30 31 32 33 34 35 36 37 38 39 40 41 42 43 44 45 46 47 48 49 50
000 ASUS42 KMHX 261425 RWRMHX WEATHER ROUNDUP FOR EASTERN NORTH CAROLINA NATIONAL WEATHER SERVICE NEWPORT/MOREHEAD CITY NC 1000 AM EDT TUE JUL 26 2016 NOTE: "FAIR" INDICATES FEW OR NO CLOUDS BELOW 12,000 FEET WITH NO SIGNIFICANT WEATHER AND/OR OBSTRUCTIONS TO VISIBILITY NCZ015>017-031-032-045>047-102-103-261500- NORTH COAST CITY SKY/WX TMP DP RH WIND PRES REMARKS EDENTON SUNNY 88 74 63 W7 29.99F ELIZABETH CITY SUNNY 86 75 69 W12 29.97F KITTY HAWK SUNNY 88 74 63 W12 29.97S MANTEO N/A 85 76 74 W13 29.98F $$ NCZ045>047-081-094-103-104-261500- CENTRAL COAST CITY SKY/WX TMP DP RH WIND PRES REMARKS FRISCO SUNNY 83 75 77 W10 30.01F $$ NCZ095-097-098-100-101-261500- SOUTHERN COAST CITY SKY/WX TMP DP RH WIND PRES REMARKS BEAUFORT MOSUNNY 83 76 79 SW15 30.03F CEDAR ISLAND NOT AVBL JACKSONVILLE PTSUNNY 85 73 67 W7 30.03S PINEY ISLAND NOT AVBL WILMINGTON MOSUNNY 84 73 69 SW13G20 30.05S $$ NCZ011>013-027>030-043-044-078>080-089-090>093-098-261500- COASTAL PLAIN CITY SKY/WX TMP DP RH WIND PRES REMARKS AHOSKIE SUNNY 84 76 77 CALM 29.98S CLINTON CLOUDY 85 75 73 W8 30.04S ELIZABETHTOWN MOSUNNY 84 74 72 SW7 30.04F GOLDSBORO NOT AVBL GREENVILLE SUNNY 86 77 74 W10 30.02S HAVELOCK SUNNY 85 73 67 SW10 30.03F KENANSVILLE NOT AVBL KINSTON MOSUNNY 86 73 66 SW9 30.02F NEW BERN MOSUNNY 84 74 71 SW8 30.03F RICHLANDS SUNNY 86 75 69 SW7 30.04F ROCKY MOUNT SUNNY 84 75 74 SW8 30.00F WASHINGTON MOSUNNY 82 74 76 SW8 30.01S WHITEVILLE MOSUNNY 84 74 72 SW6 30.05S $$ AMZ130-135-150-152-154-156-158-170-250-252-270-ANZ085-086-088-633-658-670-261500- MARINE OBSERVATIONS STATION/POSITION TIME TEMP WIND PRES WAVE SWELL AIR SEA DIR/SP/G HT/PER HT/PER (UTC) (F) (DEG/KT/KT) (MB) (FT/S) (FT/S) CHESAPEAKE LIGHT NOT AVBL 64 E VA BEACH 1350 81 81 250/ 16/ 19 1014.0 4/ 6 2/ 9 DUCK 1400 83 60 250/ 13/ 17 1014.3 2 E DUCK 1311 64 N/A 1/ 9 OREGON INLET 1400 84 84 240/ 13/ 14 1015.3 13E OREGON INLT 1400 81 N/A 3/ 5 2/ 8 HATTERAS CG 1400 83 83 230/ 12/ 18 1015.9 DIAMOND BUOY 1350 83 84 250/ 17/ 21 1016.4 4/ 6 CAPE LOOKOUT 1400 83 250/ 18/ 22 1016.7 BEAUFORT LAB 1400 83 83 230/ 5/ 13 1016.4 30 SE NEW RVR IN 1408 83 85 250/ 14/ 19 1017.7 30 SE NEW RVR IN 1325 85 N/A 4/ 5 27 SE WRIGHTSVLE 1408 84 84 250/ 16/ 19 1017.8 5 SE WRIGHTSVLE 1408 82 81 250/ 10/ 14 1018.4 225 S CAPE HAT 1350 82 84 200/ 4/ 14 1019.1 2/ 8 2/ 8 41 SE CHARLESTON 1350 85 86 240/ 12/ 12 1017.8 2/ 4 2/ 8 $$

USA.gov is the U.S. government's official web portal to all federal, state and local government web resources and services.